Flag Weather past 2 weeks in Saint-Denis, Reunion (French)

Now
75 °F

Passing clouds.


Feels Like: 74 °F
Forecast: 76 / 87 °F
Wind: 5 mph from Southwest

Location: Saint-Denis / Gillot

Current Time: Nov 29, 2014 at 12:42:18 AM

Latest Report: Nov 29, 2014 at 12:00 AM


Visibility: N/A

Pressure: 29.83 "Hg

Humidity: 94%

Dew point: 73 °F

Location of Saint-DenisLocation

Historic Weather in Saint-Denis — Graph

°F

Saint-Denis temperature yesterday

Maximum temperature yesterday: 86 °F (at 11:00 AM)
Minimum temperature yesterday: 73 °F (at 1:00 AM)
Average temperature yesterday: 79 °F

Past Weeks' High & Low Weather Summary

 TemperatureHumidityPressure
High90 °F (Nov 24, 12:30 PM)94% (Nov 16, 4:30 AM)30.09 "Hg (Nov 16, 4:30 AM)
Low68 °F (Nov 18, 6:00 AM)51% (Nov 14, 9:00 PM)29.77 "Hg (Nov 27, 3:00 PM)
Average79 °F70%29.96 "Hg
* Reported Nov 13 11:00 PM — Nov 28 11:30 PM, Saint-Denis, Weather by CustomWeather, © 2014

Note: Actual official high and low records may vary slightly from our data, if they occured in-between our weather recording intervals... More about our weather records

Advertising

Saint-Denis weather history for previous 24 hours

 ConditionsComfort  
Time TempWeatherWind HumidityBarometerVisibility
11:30 PM
Nov 28
75 °FClear.5 mph94%29.86 "HgN/A
11:00 PM77 °FPassing clouds.1 mph89%29.86 "HgN/A
10:30 PM77 °FPassing clouds.3 mph94%29.86 "HgN/A
10:00 PM77 °FPassing clouds.7 mph89%29.86 "HgN/A
9:30 PM77 °FPassing clouds.5 mph89%29.86 "Hg5 mi
9:00 PM77 °FPassing clouds.3 mph94%29.86 "Hg5 mi
8:30 PM77 °FPassing clouds.No wind94%29.86 "Hg5 mi
8:00 PM77 °FSprinkles. Passing clouds.6 mph89%29.86 "Hg5 mi
7:30 PM79 °FPassing clouds.3 mph89%29.86 "HgN/A
6:50 PM77 °FSprinkles. Passing clouds.7 mph94%29.86 "Hg2 mi
6:30 PM79 °FPassing clouds.5 mph89%29.83 "Hg5 mi
6:00 PM79 °FPassing clouds.6 mph89%29.83 "HgN/A
5:30 PM79 °FScattered clouds.5 mph89%29.83 "Hg5 mi
5:00 PM81 °FScattered clouds.No wind79%29.80 "HgN/A
4:23 PM82 °FScattered clouds.3 mph79%29.80 "Hg5 mi
4:00 PM84 °FScattered clouds.6 mph70%29.80 "HgN/A
3:30 PM84 °FPartly sunny.7 mph70%29.80 "HgN/A
3:00 PM84 °FPartly sunny.7 mph70%29.80 "HgN/A
2:30 PM82 °FPartly sunny.6 mph79%29.83 "HgN/A
2:00 PM84 °FPartly sunny.7 mph74%29.83 "HgN/A
1:30 PM84 °FPartly sunny.10 mph74%29.83 "HgN/A
1:00 PM86 °FPartly sunny.9 mph70%29.83 "HgN/A
12:30 PM86 °FPartly sunny.14 mph70%29.83 "HgN/A
12:00 PM86 °FPartly sunny.15 mph70%29.83 "HgN/A
11:30 AM86 °FPartly sunny.15 mph66%29.83 "HgN/A
11:00 AM86 °FPartly sunny.15 mph66%29.86 "HgN/A
10:30 AM84 °FScattered clouds.17 mph70%29.86 "HgN/A
10:00 AM84 °FScattered clouds.18 mph74%29.86 "HgN/A
9:30 AM84 °FScattered clouds.18 mph70%29.86 "HgN/A
9:00 AM84 °FScattered clouds.16 mph70%29.86 "HgN/A
8:30 AM84 °FScattered clouds.15 mph70%29.86 "HgN/A
8:00 AM84 °FScattered clouds.12 mph66%29.86 "HgN/A
7:30 AM84 °FScattered clouds.2 mph62%29.86 "HgN/A
7:00 AM81 °FScattered clouds.3 mph58%29.86 "HgN/A
6:30 AM77 °FScattered clouds.3 mph69%29.86 "HgN/A
6:00 AM73 °FScattered clouds.7 mph78%29.86 "HgN/A
5:30 AM73 °FScattered clouds.6 mph78%29.83 "HgN/A
5:00 AM73 °FPassing clouds.6 mph74%29.83 "HgN/A
4:30 AM73 °FPassing clouds.6 mph78%29.83 "HgN/A
4:00 AM73 °FPassing clouds.7 mph78%29.83 "HgN/A
3:30 AM73 °FClear.7 mph74%29.83 "HgN/A
3:00 AM73 °FClear.3 mph69%29.83 "HgN/A
2:30 AM73 °FClear.5 mph74%29.80 "HgN/A
2:00 AM73 °FClear.5 mph74%29.83 "HgN/A
1:30 AM73 °FClear.5 mph78%29.83 "HgN/A
1:00 AM73 °FClear.5 mph83%29.83 "HgN/A
12:30 AM75 °FClear.3 mph83%29.83 "HgN/A
12:00 AM77 °FClear.9 mph83%29.83 "HgN/A
Weather by CustomWeather, © 2014

See weather overviewHow to use our weather pages